Spokane Felts, WA
on Tuesday, January 22, 2013

Tuesday
Previous Day Next Day
Daily Summary
 ActualAverageRecord
Temperature
Mean Temperature °F 32°F  
Max Temperature 26°F 38°F 46°F (2005)
Min Temperature 15°F 27°F 5°F (2008)
Degree Days
Heating Degree Days 44 33  
Month to date heating degree days 855 751  
Since 1 July heating degree days 3023 3420  
Cooling Degree Days 0 0  
Month to date cooling degree days 0 0  
Year to date cooling degree days 0 0  
Moisture
Dew Point 16°F   
Average Humidity 85    
Maximum Humidity 92    
Minimum Humidity 77    
Precipitation
Precipitation 0.00 in 0.06 in 0.49 in (2003)
Month to date precipitation 0.92 1.44  
Year to date precipitation 0.92 1.44  
Wind
Wind Speed 1 mph   
Max Wind Speed 7 mph   
Max Gust Speed 9 mph   
Visibility 4 miles   
Events Fog   

Key: T is trace of precipitation, MM is missing value
Source: NWS Daily Summary
Time(PST)TemperatureDew PointHumidity Pressure Visibility Wind DirectionWind SpeedGust SpeedPrecipitationEvents Conditions
12:53 AM 15.1°F 10.9°F 84% 30.40 in 6.0 miles WSW 5.8 mph - N/A   Overcast
1:53 AM 15.1°F 10.9°F 84% 30.40 in 5.0 miles SW 4.6 mph - N/A   Overcast
2:53 AM 16.0°F 12.0°F 84% 30.38 in 4.0 miles Calm Calm - N/A   Overcast
3:45 AM 17.6°F 12.2°F 79% 30.28 in 2.5 miles Calm Calm - N/A   Overcast
3:53 AM 17.1°F 12.9°F 84% 30.36 in 2.5 miles Calm Calm - N/A   Overcast
4:04 AM 17.6°F 14.0°F 86% 30.27 in 1.2 miles Calm Calm - N/A   Overcast
4:23 AM 17.6°F 14.0°F 86% 30.28 in 2.5 miles Calm Calm - N/A   Overcast
4:53 AM 19.0°F 15.1°F 85% 30.36 in 2.0 miles SSW 3.5 mph - N/A   Overcast
5:00 AM 19.4°F 15.8°F 86% 30.27 in 1.8 miles Calm Calm - N/A   Overcast
5:48 AM 17.6°F 14.0°F 86% 30.26 in 2.0 miles Calm Calm - N/A   Overcast
5:53 AM 18.0°F 14.0°F 84% 30.35 in 2.0 miles Calm Calm - N/A   Overcast
6:53 AM 18.0°F 15.1°F 88% 30.37 in 1.2 miles Calm Calm - N/A   Overcast
7:21 AM 17.6°F 12.2°F 79% 30.28 in 0.5 miles SW 3.5 mph - N/A Fog Light Freezing Fog
7:53 AM 17.1°F 14.0°F 88% 30.37 in 0.2 miles Calm Calm - N/A Fog Light Freezing Fog
8:53 AM 19.0°F 15.1°F 85% 30.35 in 0.5 miles Calm Calm - N/A Fog Light Freezing Fog
9:53 AM 19.0°F 15.1°F 85% 30.36 in 0.2 miles Calm Calm - N/A Fog Light Freezing Fog
10:00 AM 19.4°F 15.8°F 86% 30.28 in 1.0 miles Calm Calm - N/A   Overcast
10:08 AM 19.4°F 15.8°F 86% 30.28 in 1.0 miles SE 3.5 mph - N/A   Haze
10:53 AM 19.9°F 16.0°F 85% 30.37 in 1.0 miles Calm Calm - N/A   Overcast
11:00 AM 19.4°F 15.8°F 86% 30.28 in 2.0 miles Calm Calm - N/A   Overcast
11:53 AM 21.0°F 16.0°F 81% 30.35 in 3.0 miles East 3.5 mph - N/A   Haze
12:53 PM 23.0°F 18.0°F 81% 30.32 in 5.0 miles Calm Calm - N/A   Haze
1:53 PM 24.1°F 19.0°F 81% 30.30 in 5.0 miles Calm Calm - N/A   Haze
2:53 PM 25.0°F 19.9°F 81% 30.28 in 5.0 miles Calm Calm - N/A   Haze
3:53 PM 25.0°F 19.9°F 81% 30.27 in 6.0 miles Calm Calm - N/A   Haze
4:53 PM 24.1°F 19.0°F 81% 30.26 in 9.0 miles Calm Calm - N/A   Overcast
5:53 PM 24.1°F 19.9°F 84% 30.25 in 7.0 miles Calm Calm - N/A   Mostly Cloudy
6:53 PM 23.0°F 19.0°F 85% 30.25 in 7.0 miles Calm Calm - N/A   Overcast
7:53 PM 23.0°F 19.9°F 88% 30.25 in 6.0 miles Calm Calm - N/A   Overcast
8:53 PM 24.1°F 19.0°F 81% 30.24 in 6.0 miles Calm Calm - N/A   Haze
9:53 PM 24.8°F 19.4°F 80% 30.16 in 6.0 miles Calm Calm - N/A   Overcast
10:53 PM 24.1°F 19.9°F 84% 30.24 in 6.0 miles Calm Calm - N/A   Overcast
11:53 PM 24.1°F 19.0°F 81% 30.22 in 9.0 miles Calm Calm - N/A   Mostly Cloudy
Moon Phase
Jan. 22 Jan. 26 Feb. 03 Feb. 10 Feb. 17
Sunrise:07:27 AM (PST) Moon Rise:12:58 PM (PST)1/22
Sunset:04:35 PM (PST) Moon Set:03:55 AM (PST)1/22

Copyright © 2014 The Weather Underground, Inc.